Location: Gälforsberget
(66.6500°N, 22.4167°E)
Time: 12:17:31
(UTC+00:00)

SME Rocket - Pass Details

Date: 11 April 2026
Orbit: 550 x 2634 km, 99.9° (Epoch: 10 May)

Event Time Altitude Azimuth Distance (km) Brightness Sun altitude
Rises 22:15:33 0° 28° (NNE) 3,104 7.7 -14.7°
Reaches altitude 10° 22:17:29 10° 25° (NNE) 2,327 7.0 -14.7°
Maximum altitude 22:22:26 62° 305° (NW) 1,105 4.5 -14.7°
Drops below altitude 10° 22:29:54 10° 228° (SW) 3,459 6.5 -14.8°
Enters shadow 22:32:20 - 226° (SW) 4,387 7.0 -14.8°
